This demonstration page uses our WeatherBlox Daily Observations layout. Learn more.

Left ArrowRight Arrow

Hourly Observations for July 9, 2020

Temp ( °F °C ) Dew Point ( °F °C ) Humidity (%) Winds ( mph kmh ) Pressure ( in mb ) Visibility ( mi km ) Precip ( " mm )
12:00 am 00:00 Cloudy with Strong Thunderstorms 64 17.8 62 16.7 93 93 NNW 32 52 29.91 1013 2 3 0.05 1.27
12:05 am 00:05 Cloudy with Strong Thunderstorms 64 17.8 62 16.7 93 93 NNW 35 56 29.91 1013 3 5 0.08 2.03
12:42 am 00:42 Cloudy with Rain 64 17.8 62 16.7 93 93 NW 14 22 29.97 1015 4 6 0.18 4.57
12:53 am 00:53 Cloudy with Thunderstorms 64 17.8 62 16.7 93 93 N 20 31 29.94 1014 5 8 0.21 5.33
1:53 am 01:53 Mostly Clear with Light Rain 64 17.8 59 15 84 84 NE 21 33 29.78 1009 10 16 0.10 2.54
2:53 am 02:53 Clear 65 18.3 59 15 81 81 S 12 19 29.74 1007 10 16 0.00 0.00
3:53 am 03:53 Clear 64 17.8 60 15.6 87 87 W 12 19 29.79 1009 10 16 0.00 0.00
4:53 am 04:53 Clear 63 17.2 60 15.6 90 90 WSW 6 9 29.74 1007 10 16 0.00 0.00
5:53 am 05:53 Clear 62 16.7 59 15 90 90 NNW 5 7 29.77 1008 10 16 0.00 0.00
6:53 am 06:53 Sunny 62 16.7 59 15 90 90 Calm 29.83 1010 10 16 0.00 0.00
7:53 am 07:53 Sunny 65 18.3 60 15.6 84 84 NW 5 7 29.85 1011 10 16 0.00 0.00
8:53 am 08:53 Sunny 70 21.1 61 16.1 73 73 NNW 7 11 29.86 1011 10 16 0.00 0.00
9:53 am 09:53 Sunny 73 22.8 62 16.7 69 69 N 8 13 29.85 1011 10 16 0.00 0.00
10:53 am 10:53 Sunny 76 24.4 64 17.8 67 67 N 6 9 29.86 1011 10 16 0.00 0.00
11:53 am 11:53 Sunny 80 26.7 64 17.8 58 58 NE 7 11 29.91 1013 10 16 0.00 0.00
12:53 pm 12:53 Sunny 81 27.2 65 18.3 58 58 NE 10 17 29.92 1013 10 16 0.00 0.00
1:53 pm 13:53 Mostly Sunny 82 27.8 64 17.8 55 55 ENE 7 11 29.93 1014 10 16 0.00 0.00
2:53 pm 14:53 Sunny 82 27.8 63 17.2 53 53 VRB 3 6 29.92 1013 10 16 0.00 0.00
3:53 pm 15:53 Sunny 84 28.9 65 18.3 53 53 SE 6 9 29.92 1013 10 16 0.00 0.00
4:53 pm 16:53 Sunny 84 28.9 65 18.3 53 53 VRB 5 7 29.91 1013 10 16 0.00 0.00
5:53 pm 17:53 Sunny 83 28.3 66 18.9 57 57 ESE 7 11 29.92 1013 10 16 0.00 0.00
6:53 pm 18:53 Sunny 83 28.3 66 18.9 57 57 E 5 7 29.94 1014 10 16 0.00 0.00
7:53 pm 19:53 Sunny 81 27.2 67 19.4 62 62 E 7 11 29.95 1014 10 16 0.00 0.00
8:53 pm 20:53 Sunny 77 25 65 18.3 66 66 ESE 6 9 29.95 1014 10 16 0.00 0.00
9:53 pm 21:53 Clear 74 23.3 66 18.9 76 76 E 3 6 29.96 1015 10 16 0.00 0.00
10:53 pm 22:53 Clear 74 23.3 66 18.9 76 76 ESE 3 6 29.99 1016 10 16 0.00 0.00
11:53 pm 23:53 Clear 70 21.1 65 18.3 84 84 Calm 30.01 1016 10 16 0.00 0.00

Powered by AerisWeather